ZS1DFR-1 Weather Reports


time (UTC)temp
C
wind
direction
speed
KPH
gust
KPH
rain 1hr
cm
rain 24hr
cm
rain mn
cm
humidity
%
barometer
mb
20260509185343 15 0 0.0 16.1 0.00 0.00 0.00 81 1003.3
20260509185341 15 0 0.0 16.1 0.00 0.00 0.00 81 1003.3
20260509183841 15 0 0.0 16.1 0.00 0.00 0.00 81 1003.3
20260509182343 15 0 0.0 1.6 0.00 0.00 0.00 77 1003.6
20260509182341 15 0 0.0 1.6 0.00 0.00 0.00 77 1003.6
20260509180843 15 0 0.0 1.6 0.00 0.00 0.00 77 1003.6
20260509180841 15 0 0.0 1.6 0.00 0.00 0.00 77 1003.6
20260509175343 15 23 0.0 1.6 0.00 0.00 0.00 76 1003.7
20260509175341 15 23 0.0 1.6 0.00 0.00 0.00 76 1003.7
20260509173841 15 23 0.0 1.6 0.00 0.00 0.00 76 1003.7
20260509172343 16 0 0.0 14.5 0.00 0.00 0.00 76 1003.9
20260509172341 16 0 0.0 14.5 0.00 0.00 0.00 76 1003.9
20260509170841 16 0 0.0 14.5 0.00 0.00 0.00 76 1003.9
20260509165343 16 23 0.0 17.7 0.00 0.00 0.00 80 1004.1
20260509165340 16 23 0.0 17.7 0.00 0.00 0.00 80 1004.1
20260509163841 16 23 0.0 17.7 0.00 0.00 0.00 80 1004.1
20260509162340 16 23 0.0 4.8 0.00 0.00 0.00 81 1004.2
20260509160840 16 23 0.0 4.8 0.00 0.00 0.00 81 1004.2
20260509155340 16 338 0.0 9.7 0.00 0.00 0.00 79 1004.3
20260509153840 16 338 0.0 9.7 0.00 0.00 0.00 79 1004.3
20260509152340 16 0 0.0 0.0 0.00 0.00 0.00 76 1004.3
20260509150840 16 0 0.0 0.0 0.00 0.00 0.00 76 1004.3
20260509145340 17 293 0.0 4.8 0.00 0.00 0.00 75 1004.3
20260509143840 17 293 0.0 4.8 0.00 0.00 0.00 75 1004.3
20260509142340 17 270 0.0 12.9 0.00 0.00 0.00 71 1004.6
20260509140840 17 270 0.0 12.9 0.00 0.00 0.00 71 1004.6
20260509135340 18 0 0.0 14.5 0.00 0.00 0.00 65 1004.6
20260509133840 18 0 0.0 14.5 0.00 0.00 0.00 65 1004.6
20260509132340 18 0 0.0 4.8 0.00 0.00 0.00 67 1004.9
20260509130843 18 0 0.0 4.8 0.00 0.00 0.00 67 1004.9
20260509130840 18 0 0.0 4.8 0.00 0.00 0.00 67 1004.9
20260509125340 18 293 0.0 1.6 0.00 0.00 0.00 63 1005.6
20260509123840 18 293 0.0 1.6 0.00 0.00 0.00 63 1005.6
20260509122340 18 270 0.0 27.4 0.00 0.00 0.00 62 1006.2
20260509120840 18 270 0.0 27.4 0.00 0.00 0.00 62 1006.2
20260509115340 19 293 0.0 12.9 0.00 0.00 0.00 55 1006.6
20260509113840 19 293 0.0 12.9 0.00 0.00 0.00 55 1006.6
20260509112343 19 293 0.0 14.5 0.00 0.00 0.00 57 1007.3
20260509112340 19 293 0.0 14.5 0.00 0.00 0.00 57 1007.3
20260509110842 19 293 0.0 14.5 0.00 0.00 0.00 57 1007.3
20260509110840 19 293 0.0 14.5 0.00 0.00 0.00 57 1007.3
20260509105340 18 293 0.0 14.5 0.00 0.00 0.00 65 1007.7
20260509103840 18 293 0.0 14.5 0.00 0.00 0.00 65 1007.7
20260509102340 18 338 0.0 6.4 0.00 0.00 0.00 67 1007.9
20260509100840 18 338 0.0 6.4 0.00 0.00 0.00 67 1007.9
20260509095340 17 0 0.0 8.0 0.00 0.00 0.00 75 1008.5
20260509093840 17 0 0.0 8.0 0.00 0.00 0.00 75 1008.5
20260509092340 17 23 0.0 11.3 0.00 0.00 0.00 81 1008.9
20260509090841 17 23 0.0 11.3 0.00 0.00 0.00 81 1008.9
20260509085340 16 0 0.0 0.0 0.00 0.00 0.00 86 1009.4
20260509083842 16 0 0.0 0.0 0.00 0.00 0.00 86 1009.4
20260509082340 15 0 0.0 0.0 0.00 0.00 0.00 89 1009.7
20260509080840 15 0 0.0 0.0 0.00 0.00 0.00 89 1009.7
20260509075340 14 0 0.0 8.0 0.00 0.00 0.00 91 1009.9
20260509073840 14 0 0.0 8.0 0.00 0.00 0.00 91 1009.9
20260509072340 12 0 0.0 0.0 0.00 0.00 0.00 95 1009.9
20260509070840 12 0 0.0 0.0 0.00 0.00 0.00 95 1009.9
20260509065340 10 0 0.0 0.0 0.00 0.00 0.00 95 1009.7
20260509063842 10 0 0.0 0.0 0.00 0.00 0.00 95 1009.7
20260509063840 10 0 0.0 0.0 0.00 0.00 0.00 95 1009.7
20260509062340 8 0 0.0 0.0 0.00 0.00 0.00 96 1009.7
20260509060840 8 0 0.0 0.0 0.00 0.00 0.00 96 1009.7
20260509055340 8 0 0.0 0.0 0.00 0.00 0.00 95 1009.9
20260509053842 8 0 0.0 0.0 0.00 0.00 0.00 95 1009.9
20260509053840 8 0 0.0 0.0 0.00 0.00 0.00 95 1009.9
20260509052342 8 0 0.0 0.0 0.00 0.00 0.00 95 1010.0
20260509052340 8 0 0.0 0.0 0.00 0.00 0.00 95 1010.0
20260509050840 8 0 0.0 0.0 0.00 0.00 0.00 95 1010.0
20260509045342 8 0 0.0 0.0 0.00 0.00 0.00 95 1010.1
20260509045340 8 0 0.0 0.0 0.00 0.00 0.00 95 1010.1
20260509043840 8 0 0.0 0.0 0.00 0.00 0.00 95 1010.1
20260509042342 8 0 0.0 0.0 0.00 0.00 0.00 95 1010.2
20260509040840 8 0 0.0 0.0 0.00 0.00 0.00 95 1010.2
20260509035340 9 0 0.0 0.0 0.00 0.00 0.00 95 1010.4
20260509033843 9 0 0.0 0.0 0.00 0.00 0.00 95 1010.4
20260509033840 9 0 0.0 0.0 0.00 0.00 0.00 95 1010.4
20260509032342 9 0 0.0 0.0 0.00 0.00 0.00 95 1010.5
20260509032340 9 0 0.0 0.0 0.00 0.00 0.00 95 1010.5
20260509030842 9 0 0.0 0.0 0.00 0.00 0.00 95 1010.5
20260509030839 9 0 0.0 0.0 0.00 0.00 0.00 95 1010.5
20260509025340 9 0 0.0 0.0 0.00 0.00 0.00 95 1010.9
20260509023842 9 0 0.0 0.0 0.00 0.00 0.00 95 1010.9
20260509023839 9 0 0.0 0.0 0.00 0.00 0.00 95 1010.9
20260509022339 10 0 0.0 0.0 0.00 0.00 0.00 94 1011.3
20260509020842 10 0 0.0 0.0 0.00 0.00 0.00 94 1011.3
20260509020839 10 0 0.0 0.0 0.00 0.00 0.00 94 1011.3
20260509015339 10 0 0.0 0.0 0.00 0.00 0.00 94 1011.6
20260509013842 10 0 0.0 0.0 0.00 0.00 0.00 94 1011.6
20260509012339 10 0 0.0 0.0 0.00 0.00 0.00 94 1012.1
20260509010839 10 0 0.0 0.0 0.00 0.00 0.00 94 1012.1
20260509005339 10 0 0.0 0.0 0.00 0.00 0.00 94 1012.2
20260509003839 10 0 0.0 0.0 0.00 0.00 0.00 94 1012.2
20260509002339 10 0 0.0 0.0 0.00 0.00 0.00 94 1012.4
20260509000841 10 0 0.0 0.0 0.00 0.00 0.00 94 1012.4
20260508235339 10 0 0.0 0.0 0.00 0.00 0.00 94 1012.5
20260508233839 10 0 0.0 0.0 0.00 0.00 0.00 94 1012.5
20260508232339 11 0 0.0 0.0 0.00 0.00 0.00 93 1012.6
20260508230839 11 0 0.0 0.0 0.00 0.00 0.00 93 1012.6
20260508225339 11 0 0.0 0.0 0.00 0.00 0.00 93 1012.9
20260508223839 11 0 0.0 0.0 0.00 0.00 0.00 93 1012.9
20260508222339 12 0 0.0 0.0 0.00 0.00 0.00 92 1013.2
20260508220839 12 0 0.0 0.0 0.00 0.00 0.00 92 1013.2
20260508215339 12 0 0.0 0.0 0.00 0.00 0.00 92 1013.5
20260508213839 12 0 0.0 0.0 0.00 0.00 0.00 92 1013.5
20260508212339 13 0 0.0 0.0 0.00 0.00 0.00 91 1013.8
20260508210839 13 0 0.0 0.0 0.00 0.00 0.00 91 1013.8
20260508205339 13 0 0.0 0.0 0.00 0.00 0.00 91 1014.0
20260508203839 13 0 0.0 0.0 0.00 0.00 0.00 91 1014.0
20260508202339 13 0 0.0 0.0 0.00 0.00 0.00 90 1014.1
20260508200841 13 0 0.0 0.0 0.00 0.00 0.00 90 1014.1
20260508200839 13 0 0.0 0.0 0.00 0.00 0.00 90 1014.1
20260508195339 14 0 0.0 0.0 0.00 0.00 0.00 89 1014.3
20260508193841 14 0 0.0 0.0 0.00 0.00 0.00 89 1014.3
20260508192339 14 0 0.0 0.0 0.00 0.00 0.00 88 1014.4
20260508190839 14 0 0.0 0.0 0.00 0.00 0.00 88 1014.4